Terug naar catalogus

STARLINK-35393

ActiefCommunicatieVLEO
NORAD 65827·PAYLOAD·🇺🇸 United States

Gelanceerd Sep 29, 2025 vanaf Vandenberg Space Force Base

Loading…

Volgende Passages (komende 24 uur)

TLE

VersSource: CelesTrak SupGP

Epoch: Sep 14, 2026, 23:12 UTC

1 65827C 25221E   26257.96715278  .00046909  00000+0  13861-2 0  2572
2 65827  53.1588 285.2629 0001241  90.5364  57.1356 15.34363976    14

Volg STARLINK-35393 in realtime met AllMySat

Download on the App Store